Location: *
(44.0153°N, 6.2153°E)
Time: 23:29:09
(UTC+00:00)

Daily predictions for brighter satellites

Satellite Brightness Start Highest point End
(mag) Time Altitude Azimuth Time Altitude Azimuth Time Altitude Azimuth
CENTAUR R/B 3.8 17:00:40 10° SSE 17:04:31 18° ESE 17:08:42 10° ENE
FALCON 9 DEB 3.6 17:01:29 10° NW 17:04:51 46° NNE 17:08:14 10° ESE
Cosmos 292 Rocket 4.0 17:02:19 10° SSW 17:07:03 78° WNW 17:11:50 10° NNE
Cosmos 1242 Rocket 2.7 17:07:07 10° NNW 17:10:49 82° WSW 17:14:27 10° S
USA 215 4.4 17:04:49 10° SSE 17:11:04 46° SW 17:17:21 10° WNW
Cosmos 2084 Rocket 4.3 17:07:46 10° NNW 17:11:50 34° NE 17:15:51 10° ESE
Falcon 9 debris 3.2 17:13:49 10° NW 17:17:14 61° NNE 17:20:40 10° ESE
SMAP 3.6 17:13:03 10° S 17:17:40 65° WSW 17:22:18 10° NNW
SJ 16-02 3.3 17:16:33 10° NE 17:17:54 11° NE 17:19:15 10° ENE
CORIOLIS 4.3 17:13:23 10° SSE 17:18:43 81° WSW 17:24:07 10° NNW
Cosmos 2058 Rocket 3.2 17:14:58 10° SSW 17:19:19 79° W 17:23:42 10° N
Cosmos 1300 3.9 17:17:58 10° SE 17:20:53 21° E 17:23:48 10° NE
Abrixas rocket 2.8 17:18:53 10° W 17:21:50 42° NNW 17:24:36 11° ENE
Unknown 3.4 17:20:48 10° NW 17:24:17 54° NNE 17:27:36 11° ESE
NOAA 12 4.1 17:19:10 10° SSE 17:24:27 83° ENE 17:29:48 10° NNW
Envisat 3.0 17:19:42 10° SSE 17:24:43 65° ENE 17:29:46 10° N
COBE Rocket 3.9 17:20:59 10° NNE 17:26:07 69° E 17:31:05 10° S
Cosmos 1328 4.3 17:26:18 10° NNW 17:30:15 65° W 17:34:08 10° S
H-2A R/B 3.8 17:27:52 10° S 17:31:40 50° W 17:35:31 10° NNW
CSL-04 Debris 4.4 17:26:35 10° SE 17:31:47 47° ENE 17:37:01 10° N
COSMO-SKYMED 1 2.6 17:28:46 10° NNE 17:33:04 57° E 17:37:20 10° S
CZ-4 R/B 4.5 17:30:06 10° SSE 17:34:07 55° ENE 17:38:10 10° N
Cosmos 1898 Rocket 4.5 17:30:50 10° N 17:35:20 27° ENE 17:39:33 11° ESE
CZ-2D R/B 4.4 17:32:58 10° ESE 17:36:04 23° ENE 17:39:12 10° NNE
Cosmos 2082 Rocket 2.2 17:30:54 10° NNW 17:36:35 62° ENE 17:42:11 10° SE
USA 238 DEB 3.6 17:30:20 10° SSW 17:37:00 79° ESE 17:43:55 10° NE
USA 238 3.6 17:30:26 10° SSW 17:37:06 78° SE 17:44:01 10° NE
H-2A R/B 4.0 17:40:42 11° NE 17:40:45 11° NE 17:42:17 10° NE
Cosmos 2058 3.8 17:37:13 10° NNE 17:40:53 28° ENE 17:44:32 10° SE
Unknown 4.1 17:40:54 10° NW 17:44:24 37° NNE 17:46:21 21° ENE
Cosmos 1339 Rocket 4.4 17:38:19 10° S 17:44:24 87° E 17:50:37 10° N
Unknown 3.1 17:41:51 10° NW 17:45:22 86° NNE 17:47:59 17° ESE
Cosmos 1459 Rocket 4.5 17:40:52 10° N 17:46:39 37° ENE 17:52:26 10° SE
Cosmos 1076 Rocket 3.7 17:43:09 10° N 17:47:21 46° ENE 17:51:30 10° SSE
Okean-O 3.9 17:45:53 10° S 17:50:07 45° W 17:54:23 10° NNW
Cosmos 1939 Rocket 3.6 17:46:40 10° SE 17:50:12 31° ENE 17:53:49 10° N
Cosmos 1726 4.2 17:47:20 10° SW 17:50:34 30° WNW 17:53:51 10° NNW
ATLAS 5 CENTAUR R/B 4.4 17:55:17 10° NW 17:56:44 11° NNW 17:58:13 10° N
In-Cosmos 22 Rocket 4.5 17:53:27 10° N 17:58:37 42° ENE 18:03:52 10° SE
NOSS 3-2 (A) 3.4 17:53:07 10° SW 17:58:52 89° WNW 18:05:25 10° NE
Cosmos 1605 Rocket 4.4 17:55:18 10° NNW 18:01:24 67° W 18:07:25 10° S
Cosmos 2151 4.1 17:59:23 10° NNE 18:02:28 24° ENE 18:02:28 24° ENE
Okean 3 Rocket 4.2 18:00:26 10° N 18:04:33 33° ENE 18:05:52 28° ESE
Ariane Rocket 3.3 18:02:36 10° SE 18:07:26 45° ENE 18:12:18 10° N
Cosmos 1812 Rocket 3.6 18:03:44 10° S 18:08:10 82° W 18:12:39 10° N
Meteor 2-1 Rocket 4.2 18:04:25 10° S 18:09:45 54° E 18:15:12 10° NNE
Cosmos 468 Rocket 4.1 18:04:52 10° S 18:09:56 49° ESE 18:14:59 10° NNE
ADEOS Rocket 4.2 18:07:27 10° NE 18:19:25 - SE 18:13:06 25° E
Cosmos 1727 Rocket 4.1 18:08:28 10° S 18:14:38 81° W 18:20:51 10° N
YAOGAN 6 3.6 18:12:18 10° S 18:15:50 47° W 18:19:20 10° NNW
Cosmos 2278 Rocket 3.6 18:10:47 10° SW 18:16:03 39° WNW 18:21:22 10° NNE
Cosmos 2173 Rocket 3.9 18:11:24 10° N 18:17:36 64° E 18:23:40 10° SSE
YAOGAN 1 2.9 18:14:38 10° S 18:18:56 66° W 18:23:15 10° NNW
CSL-04 Rocket 4.0 18:15:22 10° S 18:20:52 70° WSW 18:26:20 10° NNW
Cosmos 990 Rocket 4.0 18:16:01 10° NNW 18:21:11 58° ENE 18:23:48 28° SE
Lacrosse 5 2.6 18:16:39 10° NW 18:21:33 50° SW 18:25:45 14° SSE
Cosmos 2297 3.6 18:16:23 10° SSW 18:22:05 83° ESE 18:27:51 10° NNE
Cosmos 1937 Rocket 3.7 18:19:03 10° N 18:24:02 47° ENE 18:25:12 40° ESE
CZ-4 R/B 2.8 18:21:11 10° S 18:25:09 41° W 18:29:11 10° NNW
NOSS 3-2 (C) 3.3 18:20:14 10° SW 18:26:00 88° NW 18:31:43 14° NE
BREEZE-M DEB (TANK) 3.0 18:16:39 10° WSW 18:27:01 86° NNW 18:28:17 44° ENE
Unknown 3.7 18:24:11 10° NW 18:27:55 50° NNE 18:27:57 50° NNE
Cosmos 2123 Rocket 4.2 18:25:01 10° SSE 18:30:56 45° E 18:36:50 10° NNE
Cosmos 1802 Rocket 3.9 18:25:45 10° N 18:32:10 68° E 18:38:30 10° SSE
Cosmos 1570 Rocket 4.0 18:27:22 10° S 18:32:34 56° ESE 18:34:59 30° NE
Cosmos 1000 Rocket 4.4 18:30:28 10° S 18:36:39 82° E 18:42:56 10° N
ATLAS CENTAUR R/B 3.7 18:34:35 10° N 18:36:02 14° NNE 18:36:02 14° NNE
Cosmos-2242 2.8 18:35:01 10° S 18:39:21 78° E 18:43:42 10° N
Cosmos 1892 4.2 18:35:53 10° N 18:37:37 25° N 18:37:37 25° N
Cosmos 1725 Rocket 4.0 18:35:59 10° N 18:42:09 54° ENE 18:43:50 42° SE
Cosmos 44 3.8 18:37:46 10° SW 18:42:37 57° NW 18:45:15 25° NNE
NOAA 11 4.3 18:37:54 10° S 18:43:20 73° WSW 18:48:46 10° NNW
Cosmos 1763 Rocket 3.4 18:39:14 10° SSW 18:44:31 78° ESE 18:47:27 27° NNE
Cosmos 2100 Rocket 4.2 18:42:13 10° NNW 18:48:22 71° W 18:54:27 10° S
ATLAS 3B R/B 2.5 18:41:41 10° SSW 18:48:26 88° SE 18:52:29 26° NE
Cosmos 2208 Rocket 3.9 18:44:51 10° S 18:49:39 64° SE 18:49:39 64° SE
BREEZE-M DEB (TANK) 4.0 18:48:47 10° W 18:51:06 29° WNW 18:51:06 29° WNW
CENTAUR R/B 2.5 18:48:07 10° SW 18:54:04 81° NW 18:58:23 24° NNE
SJ 16-02 1.6 18:52:45 10° NNW 18:56:27 62° NNW 18:56:27 62° NNW
Cosmos 2016 Rocket 4.0 18:56:37 10° N 19:02:57 86° W 19:07:42 19° S
SPOT 3 Rocket 4.4 19:05:59 38° NNE 19:05:59 38° NNE 19:09:19 10° N
Cosmos 2369 Rocket 4.0 19:02:40 10° S 19:04:06 18° S 19:04:06 18° S
SL-08 R/B 4.3 19:06:18 10° N 19:12:26 85° W 19:13:56 54° S
MOS 1 4.5 19:17:41 50° SSW 19:19:02 67° WSW 19:24:41 10° NNW
H-2A R/B 3.1 19:21:20 36° N 19:21:20 36° N 19:24:34 10° N
Cosmos 1943 Rocket 3.6 19:18:17 10° SSW 19:20:37 26° SSW 19:20:37 26° SSW
ADEOS Rocket 3.6 19:52:01 10° N 19:59:32 67° WNW 20:06:24 10° SSW
ATLAS 3B R/B 4.3 20:34:27 10° W 20:39:47 26° NW 20:39:47 26° NW
CENTAUR R/B 4.4 20:40:43 10° W 20:45:37 25° NNW 20:45:37 25° NNW
